Location: Campillo
(40.8621°N, 4.2488°W)
Time: 11:21:31
(UTC+00:00)

Cosmos 2154 Rocket - Pass Details

Date: 28 September 2021
Orbit: 965 x 997 km, 82.9° (Epoch: 15 October)

Event Time Altitude Azimuth Distance (km) Brightness Sun altitude
Rises 18:40:17 0° 177° (S) 3,699 7.0 -7.7°
Reaches altitude 10° 18:42:49 10° 174° (S) 2,754 6.3 -8.2°
Maximum altitude 18:49:05 67° 93° (E) 1,075 4.0 -9.4°
Drops below altitude 10° 18:55:22 10° 13° (NNE) 2,768 6.3 -10.6°
Sets 18:57:55 0° 11° (N) 3,718 7.0 -11.0°
